Time,TemperatureF,DewpointF,PressureIn,WindDirection,WindDirectionDegrees,WindSpeedMPH,WindSpeedGustMPH,Humidity,HourlyPrecipIn,Conditions,Clouds,dailyrainin,SoftwareType,DateUTC
2014-01-15 00:07:00,44.1,43.5,29.70,NNW,337,3.1,-999.0,98,-99.99,,,0.00,Acu-Link.com,2014-01-15 05:07:00,
2014-01-15 00:22:00,43.5,43.0,29.70,NW,315,4.3,-999.0,98,-99.99,,,0.00,Acu-Link.com,2014-01-15 05:22:00,
2014-01-15 00:37:00,43.2,42.6,29.71,WNW,292,0.0,-999.0,98,-99.99,,,0.00,Acu-Link.com,2014-01-15 05:37:00,
2014-01-15 00:52:00,42.6,42.1,29.73,WNW,292,4.7,-999.0,98,-99.99,,,0.00,Acu-Link.com,2014-01-15 05:52:00,
2014-01-15 01:08:00,42.3,41.7,29.74,WSW,247,2.7,-999.0,98,-99.99,,,0.00,Acu-Link.com,2014-01-15 06:08:00,
2014-01-15 01:23:00,41.7,41.2,29.74,SW,225,0.0,-999.0,98,-99.99,,,0.00,Acu-Link.com,2014-01-15 06:23:00,
2014-01-15 01:38:00,41.0,40.5,29.75,SW,225,0.0,-999.0,98,-99.99,,,0.00,Acu-Link.com,2014-01-15 06:38:00,
2014-01-15 01:53:00,40.3,39.8,29.75,SW,225,0.0,-999.0,98,-99.99,,,0.00,Acu-Link.com,2014-01-15 06:53:00,
2014-01-15 02:09:00,43.9,43.4,29.76,SSW,202,2.2,-999.0,98,-99.99,,,0.00,Acu-Link.com,2014-01-15 07:09:00,
2014-01-15 02:24:00,42.3,41.7,29.77,WSW,247,3.1,-999.0,98,-99.99,,,0.00,Acu-Link.com,2014-01-15 07:24:00,
2014-01-15 02:39:00,40.5,39.9,29.78,WSW,247,0.0,-999.0,98,-99.99,,,0.00,Acu-Link.com,2014-01-15 07:39:00,
2014-01-15 02:54:00,40.1,39.6,29.80,SW,225,0.0,-999.0,98,-99.99,,,0.00,Acu-Link.com,2014-01-15 07:54:00,
2014-01-15 03:10:00,40.3,39.8,29.81,SW,225,0.0,-999.0,98,-99.99,,,0.00,Acu-Link.com,2014-01-15 08:10:00,
2014-01-15 03:25:00,39.6,39.0,29.81,SW,225,2.2,-999.0,98,-99.99,,,0.00,Acu-Link.com,2014-01-15 08:25:00,
2014-01-15 03:40:00,39.2,38.7,29.82,WSW,247,5.8,-999.0,98,-99.99,,,0.00,Acu-Link.com,2014-01-15 08:40:00,
2014-01-15 03:55:00,39.0,38.5,29.82,South,180,0.0,-999.0,98,-99.99,,,0.00,Acu-Link.com,2014-01-15 08:55:00,
2014-01-15 04:11:00,38.5,38.0,29.83,SSW,202,0.0,-999.0,98,-99.99,,,0.00,Acu-Link.com,2014-01-15 09:11:00,
2014-01-15 04:26:00,37.9,37.4,29.83,SW,225,0.0,-999.0,98,-99.99,,,0.00,Acu-Link.com,2014-01-15 09:26:00,
2014-01-15 04:41:00,37.6,37.1,29.85,SW,225,2.7,-999.0,98,-99.99,,,0.00,Acu-Link.com,2014-01-15 09:41:00,
2014-01-15 04:57:00,37.2,36.7,29.86,SSW,202,0.0,-999.0,98,-99.99,,,0.00,Acu-Link.com,2014-01-15 09:57:00,
2014-01-15 05:12:00,44.8,44.2,29.87,West,270,0.0,-999.0,98,-99.99,,,0.00,Acu-Link.com,2014-01-15 10:12:00,
2014-01-15 05:27:00,39.4,38.9,29.87,SSW,202,0.0,-999.0,98,-99.99,,,0.00,Acu-Link.com,2014-01-15 10:27:00,
2014-01-15 05:43:00,37.4,36.9,29.89,West,270,0.0,-999.0,98,-99.99,,,0.00,Acu-Link.com,2014-01-15 10:43:00,
2014-01-15 05:58:00,37.0,36.5,29.90,SSE,157,2.7,-999.0,98,-99.99,,,0.00,Acu-Link.com,2014-01-15 10:58:00,
2014-01-15 06:13:00,36.9,36.3,29.91,SSW,202,2.7,-999.0,98,-99.99,,,0.00,Acu-Link.com,2014-01-15 11:13:00,
2014-01-15 06:28:00,36.3,35.8,29.91,WSW,247,1.1,-999.0,98,-99.99,,,0.00,Acu-Link.com,2014-01-15 11:28:00,
2014-01-15 06:44:00,36.1,35.6,29.91,SW,225,1.1,-999.0,98,-99.99,,,0.00,Acu-Link.com,2014-01-15 11:44:00,
2014-01-15 06:59:00,35.8,35.3,29.91,West,270,4.7,-999.0,98,-99.99,,,0.00,Acu-Link.com,2014-01-15 11:59:00,
2014-01-15 07:14:00,35.4,34.9,29.92,SW,225,1.6,-999.0,98,-99.99,,,0.00,Acu-Link.com,2014-01-15 12:14:00,
2014-01-15 07:30:00,35.4,34.9,29.93,SE,135,0.0,-999.0,98,-99.99,,,0.00,Acu-Link.com,2014-01-15 12:30:00,
2014-01-15 07:45:00,35.4,34.9,29.94,WSW,247,0.0,-999.0,98,-99.99,,,0.00,Acu-Link.com,2014-01-15 12:45:00,
2014-01-15 08:00:00,35.4,34.9,29.94,West,270,0.0,-999.0,98,-99.99,,,0.00,Acu-Link.com,2014-01-15 13:00:00,
2014-01-15 08:16:00,36.3,35.8,29.95,SSW,202,2.2,-999.0,98,-99.99,,,0.00,Acu-Link.com,2014-01-15 13:16:00,
2014-01-15 08:31:00,36.9,36.3,29.97,SW,225,2.2,-999.0,98,-99.99,,,0.00,Acu-Link.com,2014-01-15 13:31:00,
2014-01-15 08:46:00,37.9,37.4,29.97,NW,315,1.6,-999.0,98,-99.99,,,0.01,Acu-Link.com,2014-01-15 13:46:00,
2014-01-15 09:01:00,38.8,38.3,29.96,SSW,202,4.3,-999.0,98,-99.99,,,0.01,Acu-Link.com,2014-01-15 14:01:00,
2014-01-15 09:17:00,39.0,38.5,29.97,West,270,3.1,-999.0,98,-99.99,,,0.01,Acu-Link.com,2014-01-15 14:17:00,
2014-01-15 09:32:00,39.4,38.9,29.97,WSW,247,3.1,-999.0,98,-99.99,,,0.01,Acu-Link.com,2014-01-15 14:32:00,
2014-01-15 09:47:00,40.5,39.9,29.96,SW,225,5.1,-999.0,98,-99.99,,,0.01,Acu-Link.com,2014-01-15 14:47:00,
2014-01-15 10:03:00,41.4,40.8,29.97,West,270,0.0,-999.0,98,-99.99,,,0.01,Acu-Link.com,2014-01-15 15:03:00,
2014-01-15 10:18:00,42.1,41.6,29.97,SSW,202,1.6,-999.0,98,-99.99,,,0.01,Acu-Link.com,2014-01-15 15:18:00,
2014-01-15 10:33:00,43.5,43.0,29.98,West,270,2.2,-999.0,98,-99.99,,,0.01,Acu-Link.com,2014-01-15 15:33:00,
2014-01-15 10:48:00,44.4,43.9,29.97,NNW,337,1.6,-999.0,98,-99.99,,,0.01,Acu-Link.com,2014-01-15 15:48:00,
2014-01-15 11:04:00,45.1,44.6,29.97,SSW,202,2.7,-999.0,98,-99.99,,,0.01,Acu-Link.com,2014-01-15 16:04:00,
2014-01-15 11:19:00,46.2,45.7,29.96,South,180,3.1,-999.0,98,-99.99,,,0.01,Acu-Link.com,2014-01-15 16:19:00,
2014-01-15 11:34:00,47.1,46.6,29.96,West,270,0.0,-999.0,98,-99.99,,,0.01,Acu-Link.com,2014-01-15 16:34:00,
2014-01-15 11:49:00,47.3,46.8,29.94,SW,225,3.1,-999.0,98,-99.99,,,0.01,Acu-Link.com,2014-01-15 16:49:00,
2014-01-15 12:04:00,47.8,47.3,29.94,NW,315,2.7,-999.0,98,-99.99,,,0.01,Acu-Link.com,2014-01-15 17:04:00,
2014-01-15 12:20:00,48.0,47.5,29.93,WSW,247,1.1,-999.0,98,-99.99,,,0.01,Acu-Link.com,2014-01-15 17:20:00,
2014-01-15 12:35:00,48.6,48.0,29.92,West,270,6.3,-999.0,98,-99.99,,,0.01,Acu-Link.com,2014-01-15 17:35:00,
2014-01-15 12:50:00,48.7,48.2,29.92,SSW,202,4.7,-999.0,98,-99.99,,,0.01,Acu-Link.com,2014-01-15 17:50:00,
2014-01-15 13:05:00,49.5,48.9,29.91,WNW,292,2.2,-999.0,98,-99.99,,,0.01,Acu-Link.com,2014-01-15 18:05:00,
2014-01-15 13:20:00,48.9,48.4,29.90,South,180,0.0,-999.0,98,-99.99,,,0.01,Acu-Link.com,2014-01-15 18:20:00,
2014-01-15 13:36:00,49.3,48.7,29.90,SW,225,0.0,-999.0,98,-99.99,,,0.01,Acu-Link.com,2014-01-15 18:36:00,
2014-01-15 13:51:00,49.5,48.9,29.90,West,270,3.8,-999.0,98,-99.99,,,0.01,Acu-Link.com,2014-01-15 18:51:00,
2014-01-15 14:06:00,48.7,48.2,29.91,West,270,0.0,-999.0,98,-99.99,,,0.01,Acu-Link.com,2014-01-15 19:06:00,
2014-01-15 14:21:00,48.7,48.2,29.90,South,180,2.2,-999.0,98,-99.99,,,0.01,Acu-Link.com,2014-01-15 19:21:00,
2014-01-15 14:37:00,48.9,48.4,29.91,SSW,202,2.2,-999.0,98,-99.99,,,0.01,Acu-Link.com,2014-01-15 19:37:00,
2014-01-15 14:52:00,48.9,48.4,29.90,SSW,202,1.1,-999.0,98,-99.99,,,0.01,Acu-Link.com,2014-01-15 19:52:00,
2014-01-15 15:07:00,48.6,48.0,29.90,SW,225,2.7,-999.0,98,-99.99,,,0.01,Acu-Link.com,2014-01-15 20:07:00,
2014-01-15 15:22:00,48.0,47.5,29.90,SW,225,5.1,-999.0,98,-99.99,,,0.01,Acu-Link.com,2014-01-15 20:22:00,
2014-01-15 15:37:00,47.5,46.9,29.90,SW,225,2.7,-999.0,98,-99.99,,,0.01,Acu-Link.com,2014-01-15 20:37:00,
2014-01-15 15:52:00,46.9,46.4,29.90,SSW,202,0.0,-999.0,98,-99.99,,,0.01,Acu-Link.com,2014-01-15 20:52:00,
2014-01-15 16:07:00,46.6,46.0,29.90,WNW,292,2.7,-999.0,98,-99.99,,,0.01,Acu-Link.com,2014-01-15 21:07:00,
2014-01-15 16:23:00,46.0,45.5,29.90,SSE,157,3.8,-999.0,98,-99.99,,,0.01,Acu-Link.com,2014-01-15 21:23:00,
2014-01-15 16:38:00,45.5,45.0,29.90,SSW,202,0.0,-999.0,98,-99.99,,,0.01,Acu-Link.com,2014-01-15 21:38:00,
2014-01-15 16:53:00,45.0,44.4,29.90,West,270,2.7,-999.0,98,-99.99,,,0.01,Acu-Link.com,2014-01-15 21:53:00,
2014-01-15 17:09:00,44.6,44.1,29.91,SSE,157,0.0,-999.0,98,-99.99,,,0.01,Acu-Link.com,2014-01-15 22:09:00,
2014-01-15 17:24:00,44.2,43.7,29.91,SSW,202,0.0,-999.0,98,-99.99,,,0.01,Acu-Link.com,2014-01-15 22:24:00,
2014-01-15 17:39:00,43.9,43.4,29.91,SW,225,2.2,-999.0,98,-99.99,,,0.01,Acu-Link.com,2014-01-15 22:39:00,
2014-01-15 17:55:00,43.7,43.2,29.90,SW,225,0.0,-999.0,98,-99.99,,,0.01,Acu-Link.com,2014-01-15 22:55:00,
2014-01-15 18:10:00,43.3,42.8,29.90,SSE,157,0.0,-999.0,98,-99.99,,,0.01,Acu-Link.com,2014-01-15 23:10:00,
2014-01-15 18:25:00,45.9,45.3,29.90,South,180,2.7,-999.0,98,-99.99,,,0.01,Acu-Link.com,2014-01-15 23:25:00,
2014-01-15 18:40:00,44.2,43.7,29.90,SSE,157,0.0,-999.0,98,-99.99,,,0.01,Acu-Link.com,2014-01-15 23:40:00,
2014-01-15 18:56:00,43.2,42.6,29.90,West,270,3.1,-999.0,98,-99.99,,,0.01,Acu-Link.com,2014-01-15 23:56:00,
2014-01-15 19:11:00,42.8,42.3,29.90,SSW,202,2.7,-999.0,98,-99.99,,,0.01,Acu-Link.com,2014-01-16 00:11:00,
2014-01-15 19:26:00,42.4,41.9,29.90,WSW,247,2.2,-999.0,98,-99.99,,,0.01,Acu-Link.com,2014-01-16 00:26:00,
2014-01-15 19:42:00,41.9,41.4,29.90,SSW,202,0.0,-999.0,98,-99.99,,,0.01,Acu-Link.com,2014-01-16 00:42:00,
2014-01-15 19:57:00,41.5,41.0,29.90,North,0,1.6,-999.0,98,-99.99,,,0.01,Acu-Link.com,2014-01-16 00:57:00,
2014-01-15 20:12:00,41.9,41.4,29.90,SSW,202,0.0,-999.0,98,-99.99,,,0.01,Acu-Link.com,2014-01-16 01:12:00,
2014-01-15 20:28:00,41.7,41.2,29.89,WSW,247,0.0,-999.0,98,-99.99,,,0.01,Acu-Link.com,2014-01-16 01:28:00,
2014-01-15 20:43:00,40.6,40.1,29.88,NNE,22,0.0,-999.0,98,-99.99,,,0.01,Acu-Link.com,2014-01-16 01:43:00,
2014-01-15 20:58:00,40.8,40.3,29.88,South,180,0.0,-999.0,98,-99.99,,,0.01,Acu-Link.com,2014-01-16 01:58:00,
2014-01-15 21:13:00,39.9,39.4,29.87,NNE,22,0.0,-999.0,98,-99.99,,,0.01,Acu-Link.com,2014-01-16 02:13:00,
2014-01-15 21:28:00,48.9,48.4,29.87,SSE,157,0.0,-999.0,98,-99.99,,,0.01,Acu-Link.com,2014-01-16 02:28:00,
2014-01-15 21:44:00,41.2,40.7,29.86,ESE,112,0.0,-999.0,98,-99.99,,,0.01,Acu-Link.com,2014-01-16 02:44:00,
2014-01-15 21:59:00,40.5,39.9,29.86,NW,315,0.0,-999.0,98,-99.99,,,0.01,Acu-Link.com,2014-01-16 02:59:00,
2014-01-15 22:14:00,40.3,39.8,29.86,SW,225,0.0,-999.0,98,-99.99,,,0.01,Acu-Link.com,2014-01-16 03:14:00,
2014-01-15 22:30:00,39.6,39.0,29.85,WSW,247,0.0,-999.0,98,-99.99,,,0.01,Acu-Link.com,2014-01-16 03:30:00,
2014-01-15 22:45:00,39.4,38.9,29.85,NNW,337,0.0,-999.0,98,-99.99,,,0.01,Acu-Link.com,2014-01-16 03:45:00,
2014-01-15 23:00:00,39.2,38.7,29.84,North,0,0.0,-999.0,98,-99.99,,,0.01,Acu-Link.com,2014-01-16 04:00:00,
2014-01-15 23:16:00,40.3,39.8,29.84,SW,225,0.0,-999.0,98,-99.99,,,0.01,Acu-Link.com,2014-01-16 04:16:00,
2014-01-15 23:31:00,39.9,39.4,29.84,SE,135,0.0,-999.0,98,-99.99,,,0.01,Acu-Link.com,2014-01-16 04:31:00,
2014-01-15 23:46:00,39.2,38.7,29.84,South,180,0.0,-999.0,98,-99.99,,,0.01,Acu-Link.com,2014-01-16 04:46:00,